{"data":{"norad_id":66912,"intl_designator":"1998-067XY","name":"ISS OBJECT XY","alt_names":[],"object_type":"PAYLOAD","status":"ACTIVE","operator":null,"country":"TBD","launch_date":"1998-11-20","launch_site_code":"TYMSC","launch_vehicle":null,"mission":null,"orbit_class":"UNKNOWN","rcs_meters":null,"size_class":null,"mass_kg":null,"dimensions":null,"purposes":["station"],"wikipedia_slug":null,"has_3d_model":false,"image_url":null,"decayed_at":null,"tle_current":{"epoch":"2026-05-24T21:46:49.728000Z","epoch_age_seconds":86528,"freshness":"FRESH","line1":"1 66912U 98067XY  26144.90752000  .00200214  00000+0  90501-3 0  9990","line2":"2 66912  51.6220  36.5143 0004799 152.3505 207.7754 15.82853823 27145","mean_motion":15.82853823,"eccentricity":0.0004799,"inclination_deg":51.622,"raan_deg":36.5143,"arg_perigee_deg":152.3505,"mean_anomaly_deg":207.7754,"bstar":0.00090501,"rev_number":2714,"period_min":90.974920051098,"perigee_km":319.15910069957,"apogee_km":325.59025180644,"semimajor_km":6700.511676253,"source":"CELESTRAK","updated_at":"2026-05-25T13:38:08.448943Z"}}}